Theta_e
319 319 318 318 318 318 318 318 318 317 315 313 312 315 317 319 323 324 325 325 321 319 325 326 324 325 323 323 324 322 321 321 322 322 321 321 321 322 323 322 322 321 320 321 320 320 324 324 322 323 321 318 318 318 316 316 318 323 326 323 321 324 326 324 326 329 325 322 322 319 323 328 326 328 331 327 327 332 332 333 334 328 324 329 326 324 337
320 320 319 318 317 318 318 318 318 317 314 312 314 318 321 322 322 321 322 323 321 321 324 326 331 330 323 323 326 322 320 322 324 325 323 321 322 325 325 322 319 319 319 319 319 321 325 325 323 323 323 320 318 317 317 318 319 322 324 322 320 322 326 327 327 328 329 332 333 329 327 324 322 326 328 324 325 327 326 329 329 324 327 331 327 327 338
319 319 319 318 317 318 319 318 318 318 313 312 316 319 321 323 324 321 322 324 322 322 322 321 326 328 323 325 329 326 324 323 322 323 322 319 320 323 323 320 318 319 320 321 321 322 323 324 324 323 322 320 319 317 317 318 319 320 319 318 320 322 327 332 329 326 328 331 330 325 323 321 322 326 325 322 323 323 323 327 326 326 330 329 327 333 338
319 319 319 318 316 317 319 318 318 318 314 312 318 320 320 323 326 324 323 323 321 321 321 320 321 324 324 325 327 328 328 324 321 321 320 319 319 320 321 319 319 322 322 323 325 324 323 323 322 322 321 320 319 318 319 318 318 319 317 314 320 324 326 332 334 331 330 329 326 324 322 320 322 324 323 321 321 324 326 326 327 330 330 327 330 334 332
318 319 319 317 316 317 319 319 318 318 315 313 317 320 319 321 324 323 322 322 323 322 321 320 319 320 323 324 324 326 328 326 322 320 320 321 320 320 321 319 320 323 322 324 325 324 324 324 322 321 320 319 318 318 320 320 319 320 315 313 323 327 323 325 328 327 328 327 325 324 321 320 320 320 322 322 323 325 323 322 328 331 324 327 336 333 324
318 319 318 317 315 316 319 319 318 318 316 313 317 319 318 319 319 318 319 322 324 323 321 319 319 320 323 324 324 325 327 327 325 324 322 320 321 323 323 323 325 326 324 324 325 324 326 327 324 322 321 321 322 321 320 318 318 318 315 315 324 327 323 322 321 322 327 327 324 323 321 319 320 320 321 322 324 326 322 321 327 328 321 326 336 331 324
317 318 318 316 315 315 318 319 318 319 316 315 318 319 317 318 319 316 317 320 320 320 319 319 320 322 324 326 326 325 326 329 328 326 323 322 323 322 323 326 329 329 326 325 325 323 323 325 325 323 322 322 324 324 322 319 317 317 319 318 320 324 327 326 321 322 328 328 323 322 321 320 320 320 320 320 322 325 325 323 324 325 323 324 328 327 325
315 316 316 315 315 315 317 318 318 319 317 316 318 319 318 318 319 317 317 318 318 317 319 319 320 323 322 324 326 324 325 327 326 323 324 327 326 321 323 330 330 327 328 326 325 323 321 322 323 322 322 324 323 322 324 324 320 319 322 321 318 320 327 327 323 323 328 329 325 323 322 321 320 321 322 322 322 323 322 321 322 322 322 323 324 324 325
313 313 313 313 314 315 315 316 318 318 317 316 316 317 318 318 317 316 317 320 319 318 318 317 320 325 325 324 325 325 325 325 323 322 322 325 326 323 324 329 328 325 327 327 325 324 321 321 321 320 320 323 322 320 322 323 321 322 324 323 320 321 325 327 325 323 326 329 325 323 323 320 320 324 326 324 323 323 322 322 324 323 321 322 322 321 324
313 313 313 313 313 314 314 315 317 318 318 317 316 316 316 316 315 315 317 320 319 317 317 317 319 324 323 321 321 322 323 321 321 323 322 319 322 322 321 323 325 325 325 325 325 322 319 321 320 319 320 319 318 318 318 317 319 323 325 324 324 326 326 327 325 322 326 329 324 322 322 320 324 331 327 319 320 322 323 324 327 325 322 323 324 323 325
313 313 313 313 313 313 313 314 316 318 318 317 316 316 316 316 315 315 316 319 319 316 316 318 319 319 318 317 319 321 322 321 320 323 324 321 319 320 319 319 324 328 325 322 321 319 319 321 320 319 320 318 318 318 317 316 317 320 323 324 325 326 326 326 324 321 327 330 325 321 320 320 328 333 323 316 318 321 320 323 328 328 326 326 326 325 326
312 312 313 313 313 313 313 313 315 317 318 318 317 316 317 317 316 315 317 320 319 316 317 318 318 317 317 318 318 319 320 321 320 321 323 322 319 320 320 319 322 327 324 319 320 320 319 320 320 321 319 317 317 317 316 318 318 316 318 322 325 325 325 325 323 321 325 329 324 322 323 325 327 326 320 317 318 320 321 325 333 332 327 325 324 323 323
310 310 311 312 313 313 313 313 313 314 316 317 317 316 316 316 316 316 317 319 318 316 317 318 317 316 318 318 318 318 317 318 318 319 319 319 318 319 320 319 321 323 320 320 320 319 320 322 323 324 323 320 321 319 319 323 322 317 316 319 322 327 327 323 321 321 323 324 322 321 324 326 324 321 320 319 320 323 323 326 334 334 326 322 322 321 319
308 308 309 310 311 312 313 313 313 313 313 314 316 316 316 316 316 317 317 318 317 316 317 319 318 317 318 318 318 318 317 316 317 318 318 318 319 318 318 319 320 319 319 321 319 318 324 326 324 324 325 326 325 324 325 326 323 321 320 318 318 324 326 322 320 319 320 322 324 323 321 322 324 323 321 319 320 325 324 323 329 330 322 318 320 321 318
305 305 306 308 310 311 311 312 313 313 313 313 314 315 317 316 315 316 317 317 317 317 317 319 319 318 318 318 318 319 319 319 318 318 317 317 317 318 318 318 319 319 320 320 319 322 324 323 322 322 323 323 322 323 325 324 320 320 319 316 316 319 322 322 321 319 318 319 321 323 320 322 326 327 322 318 317 321 322 321 324 324 318 315 319 321 317
303 302 302 303 307 309 310 310 311 312 313 313 312 314 316 317 316 316 316 317 317 318 318 317 317 318 318 318 318 319 320 320 320 320 321 320 317 317 318 318 319 320 320 318 320 324 323 321 321 322 323 324 321 320 322 322 322 323 320 317 317 318 319 322 322 320 320 318 319 322 321 321 327 328 321 317 316 317 318 321 325 324 317 315 318 319 317
303 303 300 300 302 305 308 309 309 310 311 312 312 312 314 316 316 316 316 316 317 318 318 317 317 318 318 319 320 319 319 320 319 320 322 320 317 318 318 318 319 319 319 319 321 323 322 321 321 320 322 323 319 319 322 322 323 327 324 320 320 320 319 320 321 321 322 321 321 322 320 321 328 328 320 316 316 315 316 322 329 326 317 315 318 317 316
304 303 301 300 302 303 305 306 307 307 309 310 311 311 312 314 316 316 316 316 316 317 317 317 318 318 318 319 319 319 319 319 319 319 319 317 317 318 318 318 318 319 320 321 323 323 322 321 321 321 323 323 318 319 323 322 323 328 326 322 322 323 321 320 320 321 321 321 321 321 321 325 328 324 317 315 315 317 319 324 328 323 316 316 317 316 317
305 302 300 300 302 302 302 303 303 304 305 308 310 311 312 313 315 316 316 316 316 316 317 317 317 318 317 317 318 318 318 318 318 320 320 319 318 318 318 317 317 319 320 320 323 323 321 321 322 321 322 323 320 320 323 323 324 326 324 323 324 325 323 321 320 320 321 321 321 320 321 324 320 316 316 315 317 323 325 324 321 317 316 317 317 317 317
304 302 299 298 299 300 300 300 300 301 302 304 307 310 311 312 313 314 314 315 315 315 316 316 316 316 316 317 317 317 317 317 318 319 319 319 319 318 319 318 318 319 320 321 322 322 321 323 323 320 321 324 322 321 323 325 326 323 321 324 326 324 324 325 324 322 321 320 320 320 323 324 317 314 317 318 321 326 324 318 317 317 317 317 317 317 317
302 302 299 297 297 298 299 299 299 300 301 302 305 308 310 311 312 312 313 313 313 313 315 316 316 316 316 317 317 317 317 317 318 318 318 318 318 318 319 319 317 318 320 321 322 321 320 323 323 319 321 323 321 322 325 325 325 322 319 321 323 322 324 327 326 323 323 323 322 321 322 322 317 315 318 319 320 321 318 316 318 318 316 317 317 317 317
301 300 299 299 300 300 299 298 297 298 300 301 303 307 309 310 311 311 312 312 312 313 314 315 315 316 316 316 316 317 317 317 317 318 317 317 317 317 318 318 317 317 318 318 320 321 320 321 321 319 321 321 319 323 325 322 324 326 319 317 321 323 323 323 323 323 323 324 324 320 317 316 316 316 318 317 317 317 317 317 318 317 317 318 317 317 317
301 300 299 301 302 299 297 296 296 296 297 299 301 304 306 308 310 310 311 311 311 312 312 313 313 314 315 315 316 316 316 316 316 317 317 316 316 316 316 317 317 317 317 317 319 319 320 320 319 319 323 322 320 322 322 319 323 327 320 317 321 320 316 316 320 323 321 319 319 317 314 316 317 316 317 317 317 317 317 317 317 318 317 317 317 317 317
305 303 300 299 299 298 297 296 294 294 295 296 299 301 303 305 308 309 309 310 310 311 312 312 312 312 313 314 314 314 314 314 314 315 315 315 315 315 315 316 316 317 317 317 318 317 317 318 317 318 320 320 319 321 321 320 322 324 321 320 323 320 315 316 321 322 321 322 323 319 315 316 317 316 317 317 317 317 317 317 317 317 317 318 318 317 317
302 301 299 299 299 298 297 295 294 294 294 295 297 300 300 302 305 307 308 309 309 310 311 311 312 312 312 312 313 312 312 312 312 313 313 314 314 315 315 315 316 317 317 317 317 317 317 316 316 318 319 318 318 321 322 320 321 321 320 322 323 319 317 322 325 322 319 322 322 318 315 316 317 316 317 317 316 317 317 316 317 316 316 317 317 317 317
298 298 299 301 298 296 295 295 295 294 294 295 298 300 301 301 303 305 307 307 308 309 310 310 311 312 312 312 312 312 312 312 312 313 313 313 314 315 315 315 315 316 317 317 317 318 316 315 315 318 320 319 317 319 320 319 318 319 319 318 318 317 318 323 324 322 320 319 316 314 315 317 315 315 316 316 316 316 316 315 316 316 316 316 316 316 317
299 297 298 298 296 296 296 295 295 295 296 298 301 302 302 303 303 305 306 307 309 310 310 309 310 311 312 312 312 312 312 312 313 313 313 313 313 314 315 315 315 316 316 317 317 317 316 315 315 316 318 318 316 317 318 317 317 319 318 315 315 316 319 319 319 320 320 318 315 314 316 316 315 315 315 316 316 316 315 315 315 315 315 316 316 316 316
299 297 297 296 296 296 296 296 297 298 299 300 302 302 303 304 304 304 306 308 309 310 310 310 310 311 311 311 312 312 313 313 313 313 313 313 314 314 314 314 315 316 316 317 317 316 315 315 315 315 315 316 317 318 317 316 316 319 318 315 315 316 317 317 318 319 318 316 314 314 315 314 314 315 315 315 316 315 315 315 315 315 315 315 315 315 316
297 296 296 296 296 296 297 297 299 300 301 301 301 302 303 304 304 304 305 308 309 309 309 309 309 310 310 311 311 311 312 312 313 313 312 313 313 314 314 314 315 315 316 317 317 316 315 315 316 316 316 316 318 319 318 317 317 318 317 315 315 315 315 316 316 316 315 315 316 315 314 314 315 315 315 315 315 315 315 315 315 315 315 315 315 316 315
297 297 297 297 297 297 297 298 298 299 301 301 301 301 302 303 303 303 304 306 308 308 308 308 308 309 310 310 310 310 311 311 312 312 312 312 312 312 313 314 314 314 316 317 317 316 315 315 315 316 316 316 317 318 318 317 317 316 315 315 315 315 315 315 315 315 315 315 316 315 315 315 315 315 315 315 315 315 315 315 315 315 315 315 315 315 315
298 298 298 298 299 299 299 298 298 298 299 300 301 302 303 303 303 303 304 305 306 307 307 308 308 308 309 309 309 310 310 310 311 311 312 312 312 312 312 312 313 313 315 317 318 317 316 315 315 315 316 316 316 316 316 316 316 315 315 315 315 314 314 315 315 315 315 315 315 315 315 315 315 315 315 315 315 315 315 315 315 315 315 315 315 315 315
298 299 299 299 299 299 299 299 298 298 298 299 300 300 301 302 304 305 305 305 306 306 307 308 308 308 309 309 310 309 309 310 310 311 311 311 311 312 312 312 312 313 314 316 317 316 315 315 316 316 316 316 316 315 315 316 316 315 315 315 315 314 315 315 315 315 315 315 315 315 314 315 315 315 315 315 315 316 315 315 315 315 315 315 315 315 315
298 298 299 299 299 299 299 299 298 298 298 298 298 298 298 300 303 306 307 305 305 307 307 308 308 309 309 310 310 310 310 311 311 311 311 311 311 311 311 312 312 313 315 315 315 315 316 316 316 316 317 316 316 316 316 316 316 315 315 316 315 315 315 315 315 315 315 315 315 314 315 315 315 315 315 315 315 315 315 315 315 315 315 315 315 315 315
298 298 298 298 298 298 298 298 298 298 298 297 297 297 297 298 300 304 307 306 305 305 306 306 307 308 309 309 309 310 311 311 311 311 311 311 311 312 312 313 313 314 315 315 315 315 316 315 314 315 316 316 315 316 316 316 315 315 316 316 315 315 315 315 315 315 315 315 315 315 315 315 315 315 314 314 314 314 314 315 315 315 315 315 315 315 315
298 298 298 298 298 298 298 298 298 298 298 297 297 296 297 298 299 301 304 305 304 304 305 306 306 307 308 308 309 310 310 310 311 311 312 312 312 312 313 314 314 315 315 315 315 315 315 314 314 315 316 315 316 316 316 315 315 315 316 315 315 315 315 314 315 315 315 315 315 315 315 315 314 314 314 314 314 314 314 315 315 315 316 315 315 315 315
297 297 298 298 298 298 298 298 298 298 298 298 298 298 299 300 301 301 302 303 303 304 305 306 306 307 307 308 308 309 309 310 310 311 312 313 314 314 314 314 314 314 314 314 314 314 315 315 315 316 316 315 316 316 315 315 315 315 315 315 316 315 315 314 315 315 314 314 314 314 314 314 314 314 314 314 315 315 315 315 315 316 316 315 315 315 315
297 298 298 298 299 299 298 298 298 299 299 299 299 299 300 301 302 303 303 303 304 304 304 305 305 306 306 307 308 308 309 310 310 311 312 314 314 313 313 313 313 313 313 313 314 314 314 314 315 315 315 315 315 315 315 315 315 315 315 315 316 315 315 315 315 315 314 314 314 314 314 314 314 314 314 315 315 315 315 315 315 315 316 315 315 315 315
298 298 299 299 299 299 298 298 299 300 301 301 300 300 301 302 302 303 304 304 304 304 304 304 305 305 305 306 306 307 308 309 310 310 311 312 312 311 311 312 312 312 313 314 314 313 313 313 313 314 314 314 314 314 315 315 315 315 315 316 316 315 315 315 314 314 314 313 313 314 314 314 314 314 314 315 315 315 315 315 315 315 315 315 315 315 315
298 299 299 299 299 299 299 300 301 301 302 302 302 301 302 303 303 303 304 304 304 305 306 305 305 305 305 305 305 306 307 308 309 309 310 311 312 311 311 311 312 312 313 314 314 313 314 314 314 314 314 313 313 314 314 314 315 315 315 315 315 315 315 315 314 314 314 313 314 314 314 314 315 315 315 315 315 315 315 315 314 315 315 315 315 315 315
298 298 298 299 299 299 299 300 301 301 301 302 302 302 303 303 302 302 304 304 304 305 306 306 305 304 304 305 305 305 306 307 308 309 309 310 311 310 309 309 310 311 312 313 313 313 314 314 314 315 315 313 313 313 314 314 314 314 314 314 315 315 315 315 314 314 314 314 314 314 314 314 315 314 314 314 315 315 314 314 314 315 315 315 315 315 315
298 298 299 299 299 299 299 299 300 300 301 301 302 302 302 302 302 303 304 304 303 304 305 305 305 305 305 305 305 305 306 306 307 308 309 309 310 310 309 309 310 311 312 312 312 311 312 314 314 315 314 313 313 313 314 314 314 314 314 314 314 314 315 315 314 314 314 314 314 314 314 314 314 314 314 315 315 314 314 314 315 315 315 315 315 315 314
298 298 298 299 299 299 300 300 300 300 301 302 301 301 301 302 302 302 303 303 303 304 305 305 305 305 305 305 305 306 306 306 307 308 309 309 309 309 310 309 309 311 312 312 310 309 310 313 314 314 313 313 313 313 313 314 314 314 314 314 314 314 314 314 314 314 314 314 314 314 314 314 314 314 314 314 314 315 315 315 315 315 315 315 315 315 315
298 299 299 299 299 300 300 300 301 301 301 302 302 301 301 301 302 303 303 303 303 304 305 305 305 306 305 305 306 306 307 307 308 308 308 308 308 309 310 309 308 309 311 311 309 309 311 313 314 313 312 312 313 313 313 313 313 313 313 313 313 313 313 313 314 313 314 313 314 314 314 314 314 314 314 314 314 314 314 315 315 315 315 315 315 316 315
297 298 298 299 300 300 300 301 301 301 301 301 302 302 302 301 302 303 303 304 304 305 305 305 306 307 307 307 307 307 308 308 308 307 307 307 306 307 309 310 310 310 310 310 310 311 312 313 312 312 312 312 312 313 313 313 313 313 313 313 313 313 313 313 313 313 313 313 314 314 314 314 314 314 314 314 314 314 314 314 315 315 315 315 315 315 316
297 298 298 299 299 300 300 300 301 300 300 301 301 301 302 301 301 302 302 303 304 305 304 304 304 304 305 306 307 307 308 307 306 306 306 306 306 307 309 310 310 310 310 312 313 312 312 311 312 312 312 312 312 312 313 313 313 313 312 313 312 313 313 313 313 313 314 314 314 314 314 314 315 314 314 314 314 314 315 315 315 315 315 315 315 316 316
296 297 298 299 299 299 300 300 301 301 301 301 301 301 301 301 301 301 301 302 302 303 303 302 302 303 304 305 307 307 306 306 306 305 304 305 306 307 308 308 309 309 310 312 312 311 311 311 312 312 312 312 312 312 312 313 313 313 312 312 312 313 313 313 313 313 314 314 314 314 314 314 314 314 314 315 315 315 315 315 315 316 315 315 315 315 315
296 297 298 298 299 300 299 300 301 301 301 301 301 300 300 300 300 301 301 301 302 302 302 302 302 302 303 304 306 307 305 304 305 305 305 305 306 306 305 306 309 310 310 310 310 310 310 312 313 312 311 312 312 312 312 312 312 312 312 312 312 312 313 313 313 313 313 314 314 314 314 314 314 314 315 315 315 315 315 315 315 315 315 315 315 315 315
296 297 297 298 299 300 300 300 300 300 300 301 301 301 301 301 301 301 301 301 301 301 301 301 301 301 302 304 306 306 304 303 304 305 305 306 307 307 306 306 308 310 310 310 310 309 311 311 311 310 311 312 311 311 312 312 312 312 313 312 312 312 313 313 313 313 313 313 314 314 314 314 314 314 315 315 315 315 315 315 315 315 315 315 315 315 315
296 297 297 297 298 299 300 300 300 300 300 300 300 300 301 300 301 301 301 301 301 301 302 301 301 302 304 304 305 304 304 304 304 304 304 305 307 307 307 307 307 308 309 310 310 310 310 310 310 310 311 311 311 311 312 312 312 312 312 312 312 313 313 313 313 313 313 314 314 314 314 314 314 314 314 314 314 314 315 315 315 315 315 315 315 315 315
296 296 297 297 297 298 299 299 299 299 300 300 300 300 300 300 300 300 300 301 301 301 301 301 302 303 304 304 304 304 304 304 304 304 304 305 307 307 308 308 308 308 309 311 310 309 309 309 309 310 310 310 311 311 311 311 312 312 312 312 312 312 313 313 313 313 314 314 314 314 314 314 314 314 314 314 314 314 314 315 315 315 315 315 315 315 315
295 296 296 296 297 297 298 298 298 298 299 299 300 300 300 300 300 300 301 301 301 301 301 301 302 304 304 303 303 303 303 303 304 305 305 306 307 308 308 308 308 308 308 308 308 308 308 308 309 309 310 310 310 310 310 311 311 312 312 313 313 313 313 313 313 313 314 314 314 314 314 314 314 314 314 314 314 314 315 315 315 315 315 315 315 315 315
296 296 296 296 296 296 297 297 297 298 298 298 298 299 299 300 300 300 300 300 300 301 301 301 301 302 303 303 302 302 301 302 303 305 305 306 308 308 307 306 306 306 306 306 306 307 308 308 308 309 309 309 309 309 309 309 310 311 312 313 313 313 313 313 313 313 314 314 314 314 314 314 314 314 314 314 314 315 315 315 315 315 315 315 315 315 315
Wind_Speed
14 14 14 15 15 16 17 19 20 21 23 22 19 14 10 7 4 2 5 3 3 3 2 4 3 1 5 6 1 2 2 2 1 2 3 3 0 0 0 1 2 1 1 1 2 2 1 1 2 1 1 2 0 1 6 7 6 5 1 2 2 2 3 2 3 4 5 7 6 3 4 5 4 2 1 2 2 3 5 5 3 2 2 0 1 2 5
15 14 14 14 15 15 15 17 18 20 21 23 22 17 12 10 7 3 1 3 2 1 1 1 2 3 5 4 1 1 1 2 2 2 1 1 1 1 0 1 1 1 1 2 0 0 2 1 3 1 0 1 1 4 7 6 4 3 1 1 1 1 1 2 2 4 6 6 6 6 6 5 2 3 3 0 1 2 1 1 3 1 4 4 3 3 6
16 15 14 13 14 15 13 13 16 17 18 19 19 16 13 9 6 7 5 2 4 2 1 2 3 4 3 3 2 1 1 2 2 1 1 0 2 2 0 1 0 1 1 3 2 0 3 1 3 3 1 1 2 7 8 6 4 3 4 4 3 1 2 3 3 1 2 1 1 2 3 4 3 4 6 4 2 4 2 1 2 2 4 4 5 4 6
16 15 13 12 14 14 12 10 12 15 15 15 16 13 11 7 3 7 8 4 2 5 4 4 3 3 1 3 3 0 1 1 1 1 1 2 2 2 1 1 2 2 3 3 3 2 1 1 1 3 3 3 3 5 7 7 6 5 5 4 3 3 1 1 5 5 5 5 4 4 2 2 4 6 8 8 4 2 4 2 1 3 2 1 4 5 3
15 13 12 12 13 13 11 9 9 11 13 12 13 12 9 5 2 4 7 6 6 7 8 10 9 6 1 1 2 1 0 1 0 0 1 1 2 2 1 2 2 1 1 2 2 4 3 2 1 2 2 2 3 3 6 7 5 4 3 3 3 4 2 2 4 4 5 6 6 5 2 2 4 5 6 9 9 4 1 2 4 4 2 4 6 5 3
13 12 12 12 13 12 11 9 7 9 10 9 10 10 9 5 2 4 5 3 2 4 9 14 13 9 5 1 2 1 1 1 1 2 2 1 2 2 2 3 1 3 3 3 1 3 4 3 1 0 1 2 3 4 4 3 2 2 2 2 3 5 1 3 2 2 5 4 5 5 2 3 5 5 7 8 8 7 6 7 6 6 4 7 7 6 6
12 12 12 12 12 12 11 9 7 7 7 7 7 8 8 6 3 4 6 5 5 6 12 15 12 8 5 2 1 1 2 3 4 3 1 1 2 3 1 5 5 2 2 4 2 1 1 2 3 1 1 2 1 2 3 2 1 1 2 1 2 5 1 4 2 2 5 5 5 4 4 4 6 7 8 7 8 9 8 8 7 6 7 8 7 7 8
10 11 12 13 12 11 11 10 8 6 5 4 5 7 8 7 5 7 9 7 8 11 13 11 7 6 5 2 3 2 2 1 3 1 3 1 2 1 3 6 4 1 4 5 3 3 5 4 4 2 1 2 0 1 1 2 2 3 2 1 2 3 2 4 2 3 5 6 5 5 4 4 5 8 9 7 7 7 6 6 6 6 7 8 7 7 7
9 9 10 11 10 10 10 10 9 6 4 2 2 6 5 4 4 6 7 5 6 9 11 8 5 4 3 2 2 2 0 2 1 2 1 4 4 3 4 5 3 2 3 2 3 6 6 5 5 4 2 3 3 2 2 3 1 3 0 0 2 2 1 2 4 3 5 5 4 6 6 5 5 7 7 6 6 6 5 6 5 6 6 7 6 5 5
9 9 9 8 8 8 8 9 9 7 5 4 1 3 1 1 1 1 4 3 4 6 8 7 4 2 4 6 6 6 5 3 1 1 3 2 5 4 5 6 2 2 1 3 3 4 4 5 7 6 6 7 6 5 5 5 4 2 2 1 1 4 2 1 2 0 5 5 3 4 5 6 5 5 3 3 5 6 7 6 5 5 5 4 4 5 6
12 11 10 9 8 7 7 7 8 8 7 6 2 2 3 2 1 1 5 3 4 6 6 4 4 4 9 13 12 8 5 5 0 3 2 1 4 3 2 5 5 1 4 5 3 4 6 8 9 9 10 12 12 12 12 8 7 7 5 2 1 4 5 2 2 2 4 6 4 5 4 3 5 5 3 2 6 8 8 7 7 5 3 3 4 5 5
15 14 13 11 9 8 7 6 8 8 9 9 4 0 2 3 3 3 5 1 4 6 4 2 4 7 12 15 13 9 8 10 7 5 4 2 4 6 5 5 6 1 4 6 5 5 6 7 8 8 10 11 11 14 13 10 10 12 9 6 3 3 4 2 1 2 3 3 5 5 3 6 7 7 7 7 7 7 7 7 6 6 5 5 6 7 7
14 14 14 13 12 11 9 8 8 9 10 11 8 3 2 2 2 2 2 1 3 3 3 7 11 11 13 14 14 15 16 17 14 9 8 5 5 7 7 7 6 5 4 4 5 3 2 4 4 4 6 6 7 8 8 8 10 13 11 9 7 5 4 2 1 2 1 2 3 0 5 7 7 8 9 6 3 0 1 4 6 6 5 5 7 9 9
12 12 13 13 12 12 11 10 10 10 10 11 10 7 6 5 3 2 1 1 2 3 5 8 9 9 12 15 15 15 16 17 16 11 8 5 6 6 6 8 9 7 6 6 2 1 1 2 3 3 5 5 5 5 6 6 8 11 11 10 9 7 4 2 2 2 1 1 2 2 4 8 8 5 2 1 2 2 3 1 6 7 5 6 7 9 9
11 12 12 12 12 12 12 12 11 11 11 11 11 9 8 8 7 5 4 3 2 5 8 7 3 8 12 14 14 10 8 9 11 11 10 6 4 7 10 10 8 6 9 7 3 3 2 1 1 2 3 2 1 3 4 4 5 9 11 11 9 7 4 4 3 2 2 1 3 2 3 5 6 6 6 5 5 5 7 3 5 7 6 5 2 4 7
13 13 13 13 13 12 12 12 12 13 12 11 11 11 10 10 11 10 9 7 4 3 5 7 1 10 12 11 11 8 5 5 6 6 7 7 8 12 12 6 6 11 11 7 3 3 3 2 2 1 2 3 2 3 3 2 4 5 4 4 7 4 2 5 4 2 2 2 3 2 2 5 7 9 9 5 3 2 4 4 6 7 4 3 7 6 6
16 16 15 14 14 13 12 13 13 13 14 14 12 12 12 12 13 13 13 13 9 9 12 13 12 14 9 5 7 8 7 7 6 3 3 6 10 13 14 8 3 11 11 5 3 3 3 2 2 2 3 4 2 2 4 2 2 5 4 3 5 3 3 4 4 3 3 3 3 3 3 7 7 7 10 9 5 1 3 3 6 6 4 2 8 9 8
20 18 16 14 14 14 13 13 14 14 15 16 16 15 14 13 13 13 15 15 11 11 16 17 13 10 4 2 5 6 7 8 7 4 5 7 6 11 16 13 5 7 8 4 3 3 4 2 2 3 3 4 1 2 4 1 2 4 2 1 2 2 1 2 3 4 4 4 3 3 4 7 7 9 15 14 5 1 2 5 6 3 2 2 5 8 9
22 20 17 15 15 14 14 14 14 15 16 16 18 19 17 15 14 13 14 16 13 13 15 12 9 11 10 8 9 10 9 9 7 5 4 4 6 17 21 12 4 2 2 4 3 2 4 2 2 3 2 4 2 2 3 3 3 3 2 1 1 1 1 1 2 3 3 3 3 3 5 7 8 10 12 7 4 3 5 5 2 3 2 1 2 4 6
23 21 18 16 16 15 14 14 13 14 16 17 18 20 20 19 18 16 15 15 14 18 23 22 21 24 23 18 17 18 16 11 6 2 0 4 10 19 14 3 3 8 3 2 1 1 3 2 3 2 2 4 2 2 3 3 3 3 3 3 4 4 3 2 3 3 2 2 3 3 4 6 7 4 1 3 6 5 5 4 2 5 5 4 4 3 2
22 20 18 17 16 13 13 13 13 13 14 15 16 19 21 21 19 18 17 16 13 14 17 17 16 19 21 20 22 22 18 12 9 6 7 11 11 8 2 5 8 7 2 1 1 2 2 2 3 2 2 3 2 1 3 2 4 5 4 3 2 3 4 3 3 3 3 3 4 5 6 8 8 5 3 7 10 8 6 6 9 10 10 9 9 8 8
21 19 17 16 16 15 13 14 14 13 14 15 16 19 21 21 19 18 18 18 17 17 19 19 17 18 19 19 19 19 17 14 12 12 13 16 13 8 9 15 14 8 4 2 1 2 2 2 2 2 2 3 2 3 4 3 4 5 2 2 3 6 8 6 4 4 5 6 7 8 10 12 12 12 12 13 15 15 14 14 14 14 15 14 12 10 10
19 19 17 16 18 18 15 13 14 15 15 16 18 20 22 22 20 18 18 20 20 21 26 30 29 26 27 29 26 23 21 19 19 21 20 18 17 17 19 20 17 13 11 7 3 2 3 3 3 2 3 3 3 3 3 4 4 3 3 3 4 9 9 5 2 3 5 8 11 12 12 14 16 18 18 17 17 18 17 16 17 17 17 16 16 16 14
18 20 19 18 19 18 14 13 14 16 16 17 19 20 22 23 22 20 18 18 17 17 20 27 31 31 31 33 29 25 24 24 25 26 24 22 18 17 20 22 19 14 13 11 7 6 5 4 2 3 3 3 4 3 3 5 4 3 4 4 4 4 6 4 2 2 3 6 8 9 12 17 18 17 17 18 18 18 18 18 18 16 14 14 16 17 17
22 21 19 18 18 16 14 14 15 16 16 17 18 19 21 23 23 22 19 16 14 11 9 13 23 29 29 29 29 27 24 24 23 22 22 22 23 22 24 27 24 18 18 19 17 15 11 6 2 3 5 6 7 4 3 5 5 4 5 4 3 2 3 3 3 4 4 7 9 9 13 18 18 17 17 18 17 18 17 15 11 9 8 9 11 12 15
22 21 19 19 18 16 15 15 16 16 16 15 15 17 20 22 21 20 19 16 15 15 10 8 17 27 27 25 27 28 25 23 23 23 23 22 23 23 25 28 28 26 28 29 26 21 15 8 3 4 4 6 8 5 3 5 5 3 4 7 7 6 4 3 4 3 4 9 11 9 9 13 15 16 16 16 14 13 12 11 9 9 10 11 11 12 12
22 21 19 18 17 15 15 15 15 15 14 12 12 12 15 18 18 16 15 13 11 12 9 6 12 22 24 24 26 28 29 28 27 25 23 21 22 24 26 27 29 29 28 27 25 21 14 8 6 7 7 6 6 5 5 6 3 2 6 8 10 8 4 3 4 4 4 8 12 10 6 9 15 16 15 14 14 13 15 15 15 14 15 15 15 16 15
21 19 17 16 15 13 13 13 13 13 12 11 11 12 15 18 18 16 16 17 15 13 11 12 16 21 22 23 23 21 21 23 23 21 19 18 19 22 24 27 30 30 27 23 19 14 9 6 7 9 9 9 8 5 5 5 3 4 9 7 13 13 10 7 6 6 8 15 24 21 13 14 20 21 18 17 19 20 22 23 22 20 20 20 19 19 19
15 14 13 12 11 11 11 11 11 12 12 11 12 12 14 17 18 17 18 19 18 19 20 19 19 20 22 25 28 25 22 21 21 21 20 21 22 22 23 25 27 28 28 25 19 12 9 10 12 13 11 11 8 4 4 6 5 7 14 13 15 18 20 19 17 14 14 23 30 25 18 22 29 29 25 23 24 24 25 25 24 23 24 23 22 22 21
9 10 9 9 9 9 9 9 10 11 11 11 11 9 8 11 16 19 21 22 21 21 20 15 11 12 17 24 30 32 30 27 26 26 27 29 31 30 27 28 28 27 27 24 19 14 12 11 14 18 22 21 12 2 3 7 5 8 21 26 20 19 23 25 24 22 22 29 33 30 29 34 36 33 31 29 27 26 26 26 26 26 26 26 25 25 23
9 9 9 9 9 8 8 9 10 11 11 11 11 7 4 5 10 13 18 24 26 24 20 16 14 15 17 22 29 34 34 31 29 29 30 31 32 33 32 31 31 29 27 25 22 19 13 9 9 14 22 26 19 6 4 8 5 8 22 30 25 22 25 28 29 30 30 33 36 34 35 40 37 30 29 31 28 23 22 24 25 27 27 28 28 27 26
10 10 10 10 10 10 10 10 11 12 13 13 14 14 11 7 7 11 15 20 22 21 16 12 10 9 8 11 18 26 30 31 30 30 30 30 30 31 32 31 31 31 29 25 20 14 12 14 14 13 17 23 18 6 5 10 8 8 21 30 24 19 22 26 28 30 31 34 34 28 27 35 37 30 27 28 24 19 20 24 25 26 27 27 26 25 25
11 12 12 12 13 13 13 13 13 14 15 15 18 21 19 14 12 13 14 13 13 14 13 8 4 3 4 4 6 9 13 17 20 22 23 24 23 23 24 26 27 27 26 22 15 8 9 14 16 14 18 22 14 4 5 12 10 10 25 37 31 22 22 23 23 24 26 29 29 23 22 30 34 30 27 28 26 26 30 33 32 30 29 28 28 27 25
15 15 14 15 15 15 15 15 15 15 16 18 20 20 19 18 17 17 15 13 11 11 13 9 4 3 4 4 5 5 8 11 13 13 13 16 18 18 18 18 18 17 19 20 17 11 9 11 12 9 11 14 12 8 8 11 12 17 29 40 38 31 29 28 28 29 31 29 27 26 28 31 32 32 33 35 36 36 37 36 34 32 31 30 31 31 30
16 16 16 15 15 15 15 15 16 17 18 19 18 13 9 12 16 19 21 21 16 10 9 8 6 4 3 2 3 3 7 12 15 15 13 14 16 18 18 13 9 10 14 17 15 11 9 10 11 8 6 7 9 9 7 7 14 23 30 36 38 33 28 28 33 38 38 35 33 34 36 37 37 39 41 42 42 41 39 36 34 33 31 30 30 30 30
15 15 14 13 12 12 12 13 15 18 17 14 11 6 3 7 11 15 20 24 22 15 8 5 5 4 1 2 4 2 5 12 17 17 15 11 9 13 15 9 5 8 11 9 7 6 9 12 11 7 6 7 9 11 11 13 19 23 26 34 41 37 29 30 36 39 36 33 32 34 36 38 40 41 42 43 43 42 39 36 33 32 32 31 30 29 29
13 11 10 9 9 9 12 14 15 13 10 8 5 5 6 8 9 11 13 17 21 22 17 10 5 3 3 4 4 2 1 6 9 9 9 7 5 8 9 5 3 5 6 4 4 7 10 12 9 6 7 11 15 19 21 24 26 26 28 36 44 43 37 37 39 39 35 31 30 33 35 37 39 40 40 41 42 40 38 36 33 32 34 34 31 30 30
8 8 8 9 9 10 10 11 9 5 2 2 4 5 6 7 8 8 10 12 14 19 20 14 9 8 8 8 8 7 4 3 3 2 3 3 2 3 4 4 4 4 2 3 9 11 9 6 5 7 11 16 22 27 29 30 31 32 33 37 44 47 45 42 39 35 32 29 31 34 36 36 38 40 40 40 40 40 39 36 33 32 33 33 32 31 32
8 9 10 11 14 15 11 6 4 2 2 3 4 4 5 7 5 4 7 9 9 11 14 14 14 17 16 10 12 19 17 8 1 1 1 2 2 2 2 1 3 4 2 4 7 11 7 3 3 6 10 13 19 28 32 33 35 37 38 40 45 49 50 47 41 36 34 34 35 36 35 35 37 38 37 37 38 39 38 36 34 31 30 30 29 28 27
11 12 13 14 17 18 13 8 6 7 6 4 4 5 5 7 6 4 5 5 4 6 10 11 15 23 27 20 15 17 19 16 11 7 4 5 6 4 1 0 1 3 2 5 5 9 5 3 3 7 9 10 16 28 35 36 39 43 44 44 47 50 52 52 47 41 37 37 36 35 36 38 41 41 39 39 39 39 39 38 36 33 30 30 31 31 30
13 13 14 15 16 15 11 10 11 11 7 4 4 4 3 5 6 5 4 3 2 5 10 11 9 12 21 24 20 15 16 21 22 16 9 7 8 6 2 1 3 3 3 4 6 6 2 2 5 9 9 10 18 27 32 35 40 44 45 46 48 51 54 55 53 47 42 38 36 36 39 43 45 44 42 42 42 42 41 39 37 35 35 36 37 37 35
14 14 14 14 14 13 12 11 11 10 7 5 4 3 2 3 4 4 4 5 4 4 8 12 10 8 14 22 23 18 16 19 21 17 9 5 7 8 4 0 2 3 4 3 5 3 1 4 8 8 7 12 19 24 28 33 38 39 41 44 47 49 52 53 53 51 48 43 40 41 44 46 46 44 43 43 42 41 40 39 38 38 38 36 35 33 32
15 15 13 12 13 12 11 9 9 7 4 3 4 4 2 2 3 3 3 5 7 5 5 8 8 7 10 15 17 16 15 16 16 12 6 3 5 6 3 1 3 3 1 3 3 2 3 7 10 8 8 14 19 21 23 28 32 33 36 41 43 45 48 49 49 49 48 45 43 42 43 44 45 43 42 42 41 40 40 40 39 38 36 33 31 29 26
15 14 12 10 10 9 7 6 8 8 5 3 5 5 3 4 5 4 4 5 6 6 8 10 9 5 5 9 11 10 10 11 11 8 4 3 2 2 1 3 3 1 1 1 2 3 5 9 10 9 11 16 19 20 22 26 27 29 35 39 41 42 44 45 45 46 45 43 42 41 40 42 42 41 40 41 41 40 40 39 37 35 34 33 29 26 23
13 12 9 5 6 8 6 4 5 6 5 4 4 5 5 5 5 5 7 7 5 2 5 11 13 10 8 8 9 8 6 6 6 4 2 2 2 2 3 3 1 1 1 2 3 5 9 10 6 8 14 18 20 21 23 25 26 29 36 40 40 41 41 42 43 43 42 41 39 38 37 38 39 39 39 38 38 39 39 37 35 34 33 30 28 25 23
12 10 7 4 4 7 7 4 3 4 4 4 5 6 7 6 6 8 10 10 9 10 12 13 14 14 11 9 7 6 5 5 3 2 2 1 2 2 2 1 1 2 3 4 7 10 11 7 1 8 17 21 21 23 25 27 28 33 37 40 42 41 39 39 40 40 39 38 37 35 35 35 36 37 37 37 38 40 38 36 36 36 33 29 27 25 24
12 9 7 5 4 5 6 5 3 4 5 6 7 11 14 14 14 16 15 14 14 16 17 18 19 17 15 12 7 5 5 5 3 2 2 2 1 2 1 1 3 4 4 7 11 10 5 2 2 9 15 19 21 23 27 30 33 36 38 40 43 42 40 38 38 38 37 37 36 35 35 35 33 34 36 37 38 40 39 37 37 36 32 28 24 23 23
12 9 7 5 3 3 5 5 5 9 14 12 8 11 17 19 19 20 20 19 20 22 22 20 17 15 13 10 6 3 3 4 3 3 3 2 0 1 1 2 4 4 4 8 11 6 5 8 10 10 13 18 22 26 30 33 36 36 37 40 42 41 40 40 40 39 39 38 36 35 35 34 32 32 33 32 32 33 35 35 33 30 27 24 22 22 22
14 10 7 5 4 3 5 6 6 11 17 19 17 17 17 17 19 21 19 16 16 19 21 19 14 8 4 3 2 1 2 3 2 1 1 2 2 2 2 4 7 7 5 5 4 4 10 18 23 24 23 25 26 28 31 34 35 35 37 40 41 41 40 40 40 40 39 38 37 36 34 34 33 33 32 31 29 29 29 29 27 25 23 22 23 22 22
15 12 9 8 6 4 6 9 9 7 7 12 18 21 20 21 25 26 21 17 19 22 22 18 13 7 3 1 1 2 2 3 3 2 2 3 3 2 3 6 8 7 4 3 5 12 20 25 27 28 30 32 32 31 32 33 33 35 37 39 41 41 40 39 40 40 40 39 38 37 35 34 35 34 33 32 32 29 26 25 25 24 22 22 22 22 22
11 10 10 14 15 11 8 9 11 9 5 6 11 16 18 21 24 23 20 19 21 19 13 7 5 3 1 1 3 3 1 1 2 2 4 4 3 2 5 7 7 6 7 12 19 26 30 30 28 27 28 31 35 38 39 38 37 37 38 38 39 40 40 39 39 39 39 38 38 36 34 33 33 33 33 34 33 30 27 26 25 23 22 21 21 22 23
8 6 7 13 21 23 19 18 20 20 18 19 21 22 22 22 21 19 16 14 12 10 8 5 3 2 2 3 2 1 1 1 1 2 3 3 3 4 6 9 11 12 16 20 25 29 32 31 30 30 30 32 35 39 42 43 42 40 38 37 37 37 38 38 38 38 39 39 37 35 34 33 32 32 32 32 30 29 29 27 24 22 21 21 22 22 23
Wind_Direction
314 323 333 339 342 347 347 345 350 353 355 1 8 15 15 360 345 186 188 215 303 326 338 340 346 254 275 282 269 93 102 102 74 62 23 359 14 43 311 132 100 114 196 158 32 32 25 317 348 335 2 30 156 114 80 77 72 76 84 294 344 57 80 42 305 288 295 305 312 354 38 64 60 354 18 134 149 145 153 177 182 175 237 268 84 262 271
307 311 320 332 339 344 344 340 345 353 359 3 6 8 4 353 350 13 163 218 268 336 157 301 304 285 306 324 16 78 97 102 80 68 31 346 120 87 336 98 96 230 198 107 38 77 107 315 322 354 205 245 182 82 74 71 55 58 154 168 60 10 78 83 17 337 337 341 349 357 5 27 24 308 310 189 81 48 77 136 89 217 223 162 140 238 258
303 304 308 324 333 337 339 335 338 349 358 5 8 5 1 1 0 14 22 215 234 303 269 194 247 273 326 333 295 324 52 67 87 138 247 240 135 121 296 316 15 258 28 39 333 126 132 217 316 352 321 301 50 63 68 75 69 76 113 109 89 115 154 114 105 169 258 278 325 317 320 332 329 316 319 327 43 58 38 91 78 269 238 149 150 217 262
300 300 301 313 325 331 333 329 334 344 351 4 17 17 13 20 6 350 356 352 329 327 333 13 339 279 358 352 300 5 87 260 144 131 35 43 74 92 78 38 45 35 35 24 325 317 134 182 359 10 345 338 15 60 89 99 100 102 99 80 73 90 80 121 139 161 193 198 214 231 242 313 305 303 314 314 308 84 91 92 149 201 207 228 215 206 248
296 294 294 304 316 325 329 323 329 342 346 360 19 26 26 34 38 356 351 348 355 348 351 10 357 308 305 25 275 263 205 266 75 160 269 88 85 48 15 54 74 78 48 43 296 301 340 29 54 24 1 337 339 30 90 100 104 109 86 48 78 84 14 300 155 179 212 203 225 259 277 270 268 277 294 298 295 306 24 236 222 173 144 282 255 199 195
290 288 290 299 306 314 320 319 321 337 346 356 15 32 35 25 4 24 14 334 337 354 334 337 334 313 300 261 234 261 214 205 206 240 261 203 141 103 355 320 256 206 182 134 222 305 353 10 333 332 12 345 354 5 23 65 94 114 79 30 96 104 290 260 189 256 263 243 261 287 311 283 277 281 280 285 288 282 267 252 220 168 187 247 238 202 206
283 284 287 294 300 301 304 309 313 328 346 353 15 40 39 23 353 358 2 332 293 303 309 315 321 315 306 291 256 234 184 211 241 218 122 344 242 142 149 274 274 253 169 126 129 277 347 326 291 284 25 337 16 18 348 327 286 112 94 38 89 102 237 246 179 332 307 295 291 322 360 325 304 301 286 275 265 251 245 254 238 204 219 239 233 226 234
280 282 284 287 293 293 294 300 299 310 333 346 32 50 43 36 12 334 337 330 311 315 319 325 332 327 330 322 279 269 159 196 300 262 133 152 267 164 170 233 244 120 101 108 134 202 176 187 241 208 99 1 12 148 226 223 297 350 66 22 36 95 239 249 108 36 312 298 310 340 354 319 296 296 287 277 277 265 245 244 245 238 248 253 250 253 261
289 290 288 288 292 290 294 296 285 291 303 266 64 53 50 50 22 343 337 327 319 333 335 336 338 325 334 332 288 311 214 200 319 335 213 173 188 192 182 207 222 87 90 123 198 214 192 196 235 232 228 255 220 203 207 178 44 347 300 131 50 107 236 318 64 40 290 285 326 333 330 325 301 284 284 300 308 287 254 240 223 207 224 248 265 271 265
295 297 294 295 296 289 294 293 277 275 274 257 348 39 13 316 183 3 5 327 303 343 341 337 354 331 321 329 307 292 286 269 138 358 300 171 144 148 154 152 124 45 265 241 246 252 251 265 278 287 297 285 259 250 248 204 178 206 193 152 149 143 127 24 97 67 279 278 314 336 351 354 313 259 245 321 308 285 278 272 243 206 187 196 227 237 239
290 294 295 294 295 290 290 288 274 265 259 266 319 34 2 7 137 59 29 2 296 344 356 349 8 331 321 331 323 297 297 311 251 158 217 149 123 135 169 144 125 139 236 229 256 291 284 284 290 291 294 298 291 277 268 248 224 211 174 139 222 153 128 163 168 144 268 277 322 3 3 324 264 235 206 247 268 271 275 268 251 237 207 194 223 238 245
285 286 287 287 288 288 288 282 272 263 256 259 267 332 347 19 65 39 39 61 293 339 4 316 322 316 315 327 328 318 321 319 297 234 230 249 163 187 204 154 137 200 238 228 251 278 283 285 293 296 293 301 304 290 277 268 261 246 208 173 178 151 142 191 176 145 244 295 20 18 299 244 244 270 286 270 251 245 250 261 266 259 261 283 286 271 254
282 281 280 280 280 279 282 280 270 264 259 258 256 233 250 312 11 17 46 99 273 311 333 308 309 316 327 338 337 327 330 338 329 292 266 261 213 207 203 179 190 231 213 204 241 262 311 316 321 321 309 322 337 310 281 264 263 257 231 194 176 159 154 173 178 170 250 12 65 192 255 259 277 300 305 301 300 316 350 319 299 269 266 288 281 273 267
279 281 279 276 275 271 273 276 270 266 261 255 254 240 231 252 255 235 325 338 245 274 310 312 316 334 343 343 340 331 336 355 356 332 301 274 250 253 247 229 237 238 188 169 179 105 82 13 13 358 335 354 6 323 289 270 251 243 233 210 179 152 141 165 224 224 187 200 218 241 303 307 308 306 302 300 276 192 126 330 283 267 285 294 270 271 280
284 286 281 277 276 270 267 269 268 267 262 251 248 238 229 241 238 233 269 281 263 291 277 248 286 359 348 337 341 343 340 353 353 333 319 309 304 326 315 279 253 211 180 170 126 87 99 88 51 353 324 341 327 282 299 315 268 238 229 213 184 162 165 176 199 227 138 188 275 319 331 297 271 257 269 282 262 199 138 98 295 278 299 328 311 287 296
293 295 288 277 273 269 267 266 264 265 262 253 245 233 225 232 233 233 253 260 267 299 236 199 293 345 332 323 336 352 349 346 345 327 325 341 353 355 349 316 219 184 173 162 123 93 90 127 165 174 225 216 216 262 278 310 304 291 272 189 162 156 138 133 146 191 146 160 238 240 232 253 250 254 267 271 240 167 85 29 309 270 269 47 70 44 357
296 298 290 279 272 267 264 264 263 262 259 254 247 235 224 228 233 234 242 249 255 263 250 248 287 314 316 318 338 352 352 342 343 336 309 319 337 351 358 354 228 194 183 156 100 88 103 144 171 168 240 231 183 251 267 251 283 307 342 73 120 112 75 108 145 199 187 177 223 227 238 254 247 242 250 248 244 313 27 324 275 250 229 130 93 80 63
292 293 285 276 275 271 266 265 264 262 259 254 249 242 230 225 233 237 238 241 250 265 264 262 274 287 290 307 310 325 345 345 344 339 305 300 334 352 340 329 289 213 199 168 94 103 139 173 192 178 245 267 202 232 257 220 224 254 261 104 121 115 108 148 178 205 199 200 235 263 265 258 243 248 257 256 252 226 202 225 244 253 231 177 116 101 99
285 287 279 270 271 273 274 273 269 264 260 255 250 246 237 226 228 236 239 238 240 253 258 251 245 257 271 287 285 284 303 320 326 339 323 303 346 345 330 312 301 300 219 151 113 137 157 207 232 164 205 277 255 201 224 215 216 221 174 166 202 182 170 158 167 194 194 189 219 270 285 262 240 252 263 241 155 177 223 221 271 341 350 33 106 115 122
275 278 277 273 271 271 273 276 273 265 261 256 250 248 243 233 228 234 244 246 249 259 263 261 262 266 270 274 276 278 284 292 303 344 268 264 324 342 338 302 9 0 358 134 145 210 171 221 246 172 191 236 216 179 229 247 242 209 185 200 203 186 197 218 196 186 169 167 201 232 275 251 209 195 253 158 166 208 223 210 284 315 315 317 317 299 251
264 266 272 277 276 272 269 272 272 265 260 255 249 247 246 241 234 235 246 254 259 266 268 264 260 262 263 265 267 267 265 264 264 275 279 283 307 346 338 269 319 337 325 164 199 220 203 214 220 205 217 217 191 187 209 244 285 254 208 199 221 192 183 203 220 189 159 178 206 210 230 228 201 180 200 206 206 218 233 247 266 279 281 281 284 283 278
255 259 266 274 276 275 273 272 270 264 257 251 244 242 245 246 242 238 243 250 254 258 260 258 256 256 256 256 254 251 251 256 258 259 270 282 285 274 267 285 298 290 263 275 230 225 260 252 206 212 232 217 209 216 196 193 274 274 223 156 221 211 193 191 221 218 193 202 220 227 233 231 220 220 230 226 224 238 256 261 261 267 271 266 258 258 265
258 260 258 260 267 272 274 273 270 265 258 250 242 237 240 246 247 244 244 251 259 263 262 262 264 265 260 254 252 255 258 261 261 259 260 267 274 275 270 268 270 270 265 263 260 240 235 233 221 216 233 224 199 206 228 223 228 236 219 213 230 220 206 190 208 251 256 251 243 241 245 240 230 229 237 245 250 259 268 267 263 269 276 272 263 260 263
248 252 253 256 263 268 271 273 273 268 261 254 246 240 239 244 247 248 248 255 266 273 269 263 263 265 263 259 259 264 265 264 265 265 261 254 253 263 265 260 259 260 249 248 281 306 284 265 248 221 237 235 197 190 236 240 225 197 206 243 285 245 208 191 194 229 264 270 255 245 249 250 247 245 251 259 265 270 272 271 271 274 279 278 270 265 264
237 245 254 261 264 268 273 279 279 274 265 257 250 243 240 241 244 247 250 254 263 271 273 263 261 265 270 271 270 268 266 265 264 262 258 250 242 246 258 263 261 256 253 263 284 293 284 277 259 239 241 225 213 212 220 228 228 202 190 222 266 232 189 205 222 204 217 258 262 254 254 259 259 260 265 270 272 273 272 271 272 274 272 271 270 266 265
242 245 250 255 263 273 280 281 280 277 269 262 254 246 242 241 242 245 248 251 258 262 260 257 264 268 271 274 273 271 267 265 263 259 257 254 249 251 262 267 266 263 265 269 272 269 261 249 233 248 243 216 212 212 210 225 226 213 222 224 210 196 196 201 205 215 266 279 276 268 265 267 260 254 262 270 272 275 280 277 270 267 269 272 273 274 273
245 249 251 257 268 278 280 278 278 276 271 263 254 245 240 240 239 239 239 237 243 253 255 253 263 267 267 266 266 267 265 261 259 259 258 254 250 251 256 263 265 263 261 263 264 259 247 231 230 239 237 238 238 225 226 236 216 215 258 227 188 191 211 174 191 246 264 260 261 260 261 268 266 264 267 265 262 271 282 282 275 270 272 276 275 272 269
249 257 261 265 270 273 272 273 277 276 269 262 254 240 231 230 231 230 229 229 233 245 263 276 274 274 275 271 265 261 257 252 246 247 254 255 251 248 249 254 260 261 255 253 255 251 233 211 225 234 233 241 248 240 236 237 204 239 260 215 177 198 217 186 189 230 237 248 259 259 248 254 268 275 276 270 268 274 277 277 276 273 274 277 275 271 267
254 257 259 259 262 265 266 271 278 277 268 261 260 255 243 236 233 230 227 229 239 255 269 277 277 272 267 264 264 263 260 253 246 245 251 258 258 255 252 253 257 259 255 247 240 237 237 232 230 234 235 235 236 224 225 228 214 238 249 226 196 212 229 224 223 232 241 254 261 261 256 263 272 277 279 280 281 278 273 272 273 274 275 276 272 268 267
251 251 251 250 252 257 263 268 275 279 273 261 259 270 271 250 239 234 229 227 235 252 264 267 267 266 262 258 259 262 261 257 253 250 252 258 261 261 258 259 261 262 257 249 239 236 243 238 233 240 242 238 235 196 201 227 218 236 249 247 234 229 236 237 237 242 249 257 262 265 267 271 274 277 277 280 282 278 273 273 274 274 275 275 271 270 270
250 250 249 248 250 254 260 265 269 273 276 266 251 239 232 240 238 231 227 227 231 241 254 260 264 274 274 264 259 260 261 259 257 254 255 257 261 262 261 260 260 257 251 243 238 237 237 223 220 237 238 235 235 232 226 238 233 232 249 253 249 242 244 246 246 248 253 258 262 265 266 267 269 271 273 276 279 279 279 282 281 279 275 271 269 270 270
251 252 249 250 254 256 259 267 270 267 269 266 253 238 229 226 225 218 218 222 225 230 242 258 270 277 275 263 260 261 260 258 255 253 253 253 256 261 262 258 253 251 248 241 234 234 232 219 218 231 234 232 237 244 235 240 237 230 249 257 255 246 247 249 247 248 252 255 257 258 259 262 264 266 272 277 280 282 286 289 289 285 279 275 272 270 267
257 257 256 257 259 261 264 267 269 270 270 267 260 253 247 238 220 206 207 215 222 227 237 250 269 262 254 276 288 268 251 246 245 243 244 249 252 254 258 255 249 245 242 234 224 222 225 215 215 230 236 234 238 262 250 243 238 230 247 255 254 245 244 248 249 251 255 254 250 246 248 256 262 269 278 283 285 287 288 290 289 284 279 276 274 270 265
263 262 262 260 259 262 264 263 265 270 269 265 265 266 260 249 231 214 215 231 242 244 245 246 253 267 268 290 306 267 231 238 246 239 238 252 255 247 246 248 242 233 231 228 222 224 228 210 201 218 230 223 226 242 250 245 236 230 242 252 254 249 248 253 254 254 254 252 249 249 255 262 269 276 281 283 285 287 286 284 282 279 277 276 274 272 269
264 262 262 260 258 258 257 256 259 262 261 267 280 292 284 257 237 223 225 236 245 250 248 241 244 267 283 293 294 244 217 237 252 248 246 258 257 242 235 231 218 215 226 226 220 223 224 201 194 210 215 196 213 236 238 228 228 228 236 249 254 250 245 247 252 254 253 252 252 256 260 264 269 273 276 278 280 281 280 277 276 275 276 278 278 278 274
260 261 259 257 256 254 249 247 251 255 261 276 298 310 269 229 225 223 228 234 238 243 250 246 241 245 259 282 286 262 218 236 245 243 242 250 249 232 226 220 210 225 227 219 218 235 217 193 193 221 227 203 219 238 232 226 231 229 232 246 254 252 245 245 250 255 256 255 254 256 257 260 263 266 269 271 273 274 274 273 271 269 269 272 276 278 275
251 252 247 242 240 240 244 247 249 256 273 289 284 259 233 216 212 222 232 235 237 240 244 251 255 239 239 273 296 357 247 250 251 244 237 238 238 229 221 206 222 245 235 218 233 231 205 191 199 235 238 227 236 243 238 234 238 236 234 245 254 256 253 250 251 254 256 256 255 256 257 259 261 262 263 265 267 268 269 269 269 268 268 269 272 276 277
231 229 223 219 216 220 236 248 245 248 308 291 236 237 238 226 225 234 230 227 232 234 233 237 247 246 247 259 262 254 260 299 325 301 254 249 268 246 211 194 213 222 231 257 233 216 201 197 217 238 244 242 242 243 241 239 241 241 240 245 253 257 257 254 251 249 248 248 249 251 252 253 255 258 259 260 261 263 266 268 270 271 270 269 269 273 278
203 209 210 210 213 217 222 218 197 215 288 263 234 234 222 208 209 217 209 211 223 225 221 228 238 235 231 238 250 247 244 247 294 300 212 211 240 221 177 220 230 204 236 274 216 189 192 243 245 234 249 248 240 239 239 238 240 242 242 244 250 255 257 257 254 248 243 243 246 249 250 252 255 258 259 259 262 264 266 267 269 271 270 269 269 274 278
200 204 208 217 226 233 236 227 224 253 277 255 220 227 219 203 201 200 195 202 214 207 206 221 235 232 228 230 243 247 237 230 233 239 229 226 227 208 156 287 187 165 259 269 189 168 191 255 236 236 248 243 235 238 239 238 240 243 244 245 249 253 256 258 257 254 250 249 249 250 253 256 260 262 262 262 263 265 267 268 267 266 265 266 270 275 276
205 207 213 226 237 244 247 242 241 248 251 225 212 229 220 201 206 209 203 204 226 224 218 218 221 221 221 222 226 233 233 232 233 234 238 237 220 199 191 209 163 166 256 240 173 164 207 245 234 245 246 230 230 236 236 236 240 244 245 247 250 253 256 258 259 259 257 255 252 253 256 259 261 262 262 262 263 265 266 266 264 263 266 269 272 272 271
206 211 220 232 239 238 236 237 236 230 220 208 209 215 213 213 216 212 211 216 223 222 214 211 210 219 224 222 223 226 229 228 224 221 223 223 203 197 206 100 158 215 241 189 146 141 224 234 242 245 214 205 222 231 232 235 241 245 248 250 252 253 256 258 259 260 261 259 256 257 259 260 261 261 261 261 263 264 264 263 264 268 272 274 273 270 267
209 216 225 235 236 231 230 229 218 206 202 212 203 194 198 205 196 193 215 223 222 222 214 207 214 229 228 222 224 227 224 219 217 217 219 210 189 190 195 187 203 224 214 123 139 193 223 234 248 238 192 198 216 223 229 238 244 248 253 255 255 255 256 257 259 261 262 261 260 260 261 261 261 262 262 262 261 261 262 264 267 270 271 273 273 270 265
216 226 234 240 230 218 214 201 186 185 201 224 204 196 203 194 188 202 218 196 186 199 212 211 213 222 215 206 212 222 223 217 214 216 228 233 200 174 197 223 218 208 76 130 217 237 234 239 243 226 204 210 218 221 230 240 244 248 255 259 258 257 257 257 258 259 261 261 262 261 262 262 261 262 263 263 261 260 262 265 267 268 270 271 268 263 259
217 221 224 226 207 193 188 180 177 189 212 215 189 194 210 201 191 202 206 193 180 212 244 234 237 247 247 226 218 220 217 207 203 206 216 216 200 202 217 222 189 129 214 233 230 236 245 251 242 198 201 215 224 229 233 237 241 248 256 261 260 258 256 256 257 258 258 259 261 260 259 260 261 261 262 263 262 262 264 265 265 266 267 264 258 256 261
214 212 211 231 219 190 187 199 195 188 203 213 208 212 215 208 212 223 223 225 245 275 284 279 271 262 249 237 229 218 196 180 188 221 210 187 225 241 230 173 158 194 224 238 238 242 252 267 211 186 208 220 229 234 236 239 242 247 252 257 261 261 258 256 257 259 259 259 258 256 256 258 260 262 264 265 265 265 264 263 263 264 261 255 252 257 265
211 209 214 243 244 200 201 226 242 224 226 227 224 228 233 237 243 245 244 244 255 268 278 284 287 280 265 252 244 222 188 174 186 221 193 168 266 297 328 290 235 219 218 236 242 248 271 347 159 198 215 223 228 233 238 242 244 245 248 254 260 262 260 258 257 258 259 259 257 256 257 259 261 263 264 266 267 266 263 261 261 260 255 250 252 259 264
206 205 211 232 241 203 207 221 238 247 250 252 250 245 244 242 243 247 251 252 256 262 266 268 273 278 271 255 244 224 182 173 194 225 199 156 175 266 237 243 242 226 228 246 251 264 330 325 301 276 254 242 239 241 246 249 248 247 250 255 258 259 260 260 260 259 260 261 260 260 261 261 262 263 263 264 266 266 263 259 254 248 243 243 248 255 260
215 215 222 237 260 273 261 257 254 250 250 252 255 257 257 255 253 255 258 258 258 263 267 265 260 261 256 231 222 226 197 188 199 219 193 189 220 223 212 235 245 243 242 250 263 306 320 315 311 305 290 274 263 256 252 251 251 250 253 258 261 261 261 261 262 263 263 261 260 261 263 263 264 264 262 260 261 262 259 251 242 234 235 243 249 253 256
228 232 238 240 246 270 278 273 273 270 250 243 246 249 252 258 261 262 265 267 268 270 274 271 260 250 237 201 217 240 219 198 186 181 197 206 216 220 227 239 247 248 245 258 289 301 305 307 309 308 302 296 290 280 271 265 261 259 259 263 266 266 263 263 263 264 265 264 264 263 263 263 264 263 262 263 264 260 250 238 230 231 239 248 251 252 255
232 235 238 237 239 247 260 267 271 276 276 261 258 255 252 253 257 260 263 263 261 261 262 251 226 213 210 224 226 239 248 159 149 189 226 220 193 196 237 245 246 253 266 274 281 288 293 297 301 302 301 298 296 295 294 289 281 273 268 267 267 267 267 266 266 266 267 268 268 266 264 263 263 262 264 268 266 254 235 226 227 235 244 249 251 252 254
227 238 247 241 240 245 251 258 263 268 269 269 270 273 271 269 269 271 274 273 267 264 266 261 224 193 230 238 213 168 357 305 230 236 249 238 198 203 235 250 257 264 271 276 280 282 285 289 292 292 292 292 294 297 299 298 293 286 280 276 275 275 275 274 273 272 271 269 267 267 266 265 266 266 265 262 253 237 224 224 232 241 247 250 251 252 254